TimePDT,TemperatureF,Dew PointF,Humidity,Sea Level PressureIn,VisibilityMPH,Wind Direction,Wind SpeedMPH,Gust SpeedMPH,PrecipitationIn,Events,Conditions,WindDirDegrees,DateUTC
12:53 AM,82.0,43.0,25,29.58,10.0,Calm,Calm,-,N/A,,Clear,0,2013-06-03 07:53:00
1:53 AM,78.1,48.9,36,29.58,10.0,Calm,Calm,-,N/A,,Clear,0,2013-06-03 08:53:00
2:53 AM,77.0,48.9,37,29.58,10.0,ESE,3.5,-,N/A,,Clear,120,2013-06-03 09:53:00
3:53 AM,75.0,50.0,41,29.59,10.0,Calm,Calm,-,N/A,,Clear,0,2013-06-03 10:53:00
4:53 AM,75.9,48.9,38,29.60,10.0,Variable,3.5,-,N/A,,Clear,0,2013-06-03 11:53:00
5:53 AM,73.0,50.0,44,29.62,10.0,Calm,Calm,-,N/A,,Clear,0,2013-06-03 12:53:00
6:53 AM,75.9,48.0,37,29.65,10.0,SE,4.6,-,N/A,,Clear,140,2013-06-03 13:53:00
7:53 AM,79.0,48.0,34,29.68,10.0,SE,3.5,-,N/A,,Clear,130,2013-06-03 14:53:00
8:53 AM,84.9,46.0,26,29.70,10.0,Calm,Calm,-,N/A,,Clear,0,2013-06-03 15:53:00
9:53 AM,89.1,44.1,21,29.71,10.0,Calm,Calm,-,N/A,,Clear,0,2013-06-03 16:53:00
10:53 AM,91.9,42.1,18,29.71,-9999.0,NE,4.6,-,N/A,,Clear,50,2013-06-03 17:53:00
11:53 AM,93.9,39.9,15,29.70,10.0,Variable,5.8,-,N/A,,Clear,0,2013-06-03 18:53:00
12:53 PM,96.1,37.9,13,29.69,10.0,Variable,4.6,-,N/A,,Clear,0,2013-06-03 19:53:00
1:53 PM,97.0,37.0,12,29.68,10.0,Calm,Calm,-,N/A,,Clear,0,2013-06-03 20:53:00
2:53 PM,100.0,32.0,9,29.65,10.0,Variable,4.6,-,N/A,,Clear,0,2013-06-03 21:53:00
3:21 PM,100.4,42.8,14,29.65,10.0,NNW,16.1,21.9,N/A,,Clear,340,2013-06-03 22:21:00
3:53 PM,102.0,43.0,13,29.63,10.0,NW,12.7,23.0,N/A,,Clear,320,2013-06-03 22:53:00
4:53 PM,100.0,42.1,14,29.62,10.0,NW,13.8,18.4,N/A,,Clear,320,2013-06-03 23:53:00
5:53 PM,98.1,39.0,13,29.61,10.0,NW,12.7,20.7,N/A,,Clear,320,2013-06-04 00:53:00
6:53 PM,96.1,42.1,15,29.62,10.0,NW,13.8,21.9,N/A,,Clear,320,2013-06-04 01:53:00
7:53 PM,91.9,46.9,21,29.64,10.0,NW,19.6,25.3,N/A,,Clear,320,2013-06-04 02:53:00
8:53 PM,88.0,52.0,29,29.66,10.0,NW,20.7,27.6,N/A,,Clear,320,2013-06-04 03:53:00
9:53 PM,84.9,52.0,32,29.67,10.0,NW,16.1,-,N/A,,Clear,310,2013-06-04 04:53:00
10:53 PM,82.0,52.0,35,29.68,10.0,Calm,Calm,-,N/A,,Clear,0,2013-06-04 05:53:00
11:53 PM,79.0,53.1,40,29.68,10.0,SW,3.5,-,N/A,,Clear,220,2013-06-04 06:53:00